Hourly Data Report for April 05, 2020

MIRAMICHI RCS
NEW BRUNSWICK
Current Station Operator: ECCC - MSC

47°00'34.000" N
65°27'54.000" W
33.00 m
8100989
71744
ACQ

Download Data

Hourly Data (April 2020)
Hourly Data Report for April 5, 2020
TIME
LST
Temp Definition
°C
Dew Point Definition
°C
Rel Hum Definition
%
Precip. Amount Definition
mm

Wind Dir Definition
10's deg

Wind Spd Definition
km/h
Visibility Definition
km
Stn Press Definition
kPa
Hmdx Definition


Wind Chill Definition


Weather Definition


00:00 -2.3 -4.4 86 LegendMM   0   101.35     LegendNANA
01:00 -2.2 -4.0 87 LegendMM 18 3   101.30   -3 LegendNANA
02:00 -2.1 -4.0 87 LegendMM 18 3   101.27   -3 LegendNANA
03:00 -2.0 -3.9 87 LegendMM 21 3   101.28   -3 LegendNANA
04:00 -2.0 -3.9 87 LegendMM 20 4   101.28   -3 LegendNANA
05:00 -1.9 -3.7 87 LegendMM 22 6   101.26   -4 LegendNANA
06:00 -1.9 -3.9 86 LegendMM 21 4   101.26   -3 LegendNANA
07:00 -1.6 -3.6 86 LegendMM 16 5   101.29   -3 LegendNANA
08:00 -0.4 -3.2 81 LegendMM 16 2   101.28   -1 LegendNANA
09:00 1.7 -3.2 70 LegendMM 24 3   101.27     LegendNANA
10:00 3.2 -2.8 65 LegendMM 23 6   101.24     LegendNANA
11:00 6.2 -2.2 55 LegendMM 26 2   101.17     LegendNANA
12:00 8.8 -1.3 49 LegendMM 10 2   101.09     LegendNANA
13:00 8.3 -2.9 45 LegendMM 4 3   101.00     LegendNANA
14:00 9.2 -3.6 40 LegendMM 10 5   100.88     LegendNANA
15:00 9.8 -3.2 40 LegendMM 22 11   100.80     LegendNANA
16:00 9.9 -2.9 41 LegendMM 22 11   100.71     LegendNANA
17:00 8.8 -1.2 49 LegendMM 18 15   100.65     LegendNANA
18:00 8.2 -2.0 49 LegendMM 21 16   100.65     LegendNANA
19:00 7.0 -2.2 52 LegendMM 19 14   100.62     LegendNANA
20:00 6.0 -2.1 56 LegendMM 18 16   100.59     LegendNANA
21:00 5.3 -2.0 59 LegendMM 21 9   100.58     LegendNANA
22:00 5.2 -1.8 61 LegendMM 23 14   100.52     LegendNANA
23:00 5.1 -1.5 62 LegendMM 22 19   100.45     LegendNANA

Notes on Data Quality.

Legend

  • E = Estimated
  • M = Missing
  • NA = Not Available*
  • [empty] = Indicates an unobserved value
Date modified: